Regional Weather Roundup
Issued by NWS Newport/Morehead, NC

Current Version | Previous Version | Graphics & Text | Print | Product List | Glossary On
Versions: 1 2 3 4 5 6 7 8 9 10 11 12 13 14 15 16 17 18 19 20 21 22 23 24 25 26 27 28 29 30 31 32 33 34 35 36 37 38 39 40 41 42 43 44 45 46 47 48 49 50
000 ASUS42 KMHX 221725 RWRMHX WEATHER ROUNDUP FOR EASTERN NORTH CAROLINA NATIONAL WEATHER SERVICE NEWPORT/MOREHEAD CITY NC 1200 PM EST WED NOV 22 2017 NOTE: "FAIR" INDICATES FEW OR NO CLOUDS BELOW 12,000 FEET WITH NO SIGNIFICANT WEATHER AND/OR OBSTRUCTIONS TO VISIBILITY NCZ015>017-031-032-045>047-102-103-221800- NORTH COAST CITY SKY/WX TMP DP RH WIND PRES REMARKS EDENTON MOSUNNY 65 53 63 N12G22 29.93F ELIZABETH CITY CLOUDY 65 55 70 N16 29.92F KITTY HAWK MOSUNNY 64 55 75 NW8 29.90F MANTEO MOSUNNY 61 56 82 N7 29.92F $$ NCZ045>047-081-094-103-104-221800- CENTRAL COAST CITY SKY/WX TMP DP RH WIND PRES REMARKS FRISCO MOSUNNY 62 60 93 NW7 29.90F $$ NCZ095-097-098-100-101-221800- SOUTHERN COAST CITY SKY/WX TMP DP RH WIND PRES REMARKS BEAUFORT PTSUNNY 67 59 75 N7 29.93F CEDAR ISLAND NOT AVBL JACKSONVILLE MOSUNNY 67 56 67 NW14 29.95F PINEY ISLAND NOT AVBL WILMINGTON PTSUNNY 68 55 63 N5 29.97F $$ NCZ011>013-027>030-043-044-078>080-089-090>093-098-221800- COASTAL PLAIN CITY SKY/WX TMP DP RH WIND PRES REMARKS AHOSKIE MOSUNNY 62 49 63 N7 29.96 CLINTON SUNNY 67 50 54 NW8 29.98F ELIZABETHTOWN NOT AVBL GOLDSBORO SUNNY 67 48 50 NW14G21 29.95F GREENVILLE SUNNY 64 45 48 N13G18 29.98S HAVELOCK NOT AVBL KENANSVILLE SUNNY 68 50 52 N12 29.97F KINSTON SUNNY 66 46 48 NW15 29.97F NEW BERN CLOUDY 65 54 67 N14 29.95F RICHLANDS SUNNY 67 52 58 N10 29.96F ROCKY MOUNT SUNNY 64 43 46 NW15G21 29.98F WASHINGTON PTSUNNY 65 50 58 NW9 29.94F WHITEVILLE SUNNY 68 52 56 CALM 29.98F $$ AMZ130-135-150-152-154-156-158-170-250-252-270-ANZ085-086-088-633-658-670-221800- MARINE OBSERVATIONS STATION/POSITION TIME TEMP WIND PRES WAVE SWELL AIR SEA DIR/SP/G HT/PER HT/PER (UTC) (F) (DEG/KT/KT) (MB) (FT/S) (FT/S) CHESAPEAKE LIGHT NOT AVBL 64 E VA BEACH 1650 61 62 320/ 21/ 27 1012.2 5/ 8 5/ 8 DUCK 1700 61 60 350/ 15/ 17 1012.4 2 E DUCK 1700 61 N/A 4/ 8 OREGON INLET 1700 62 56 320/ 10/ 13 1012.6 13E OREGON INLT 1648 64 N/A 5/ 7 5/ 7 HATTERAS CG 1700 60 60 310/ 9/ 11 1012.4 DIAMOND BUOY 1710 63 75 300/ 16/ 19 1012.9 CAPE LOOKOUT 1700 340/ 7/ 8 1014.0 BEAUFORT LAB 1700 63 60 310/ 5/ 7 1013.5 30 SE NEW RVR IN 1708 63 66 310/ 10/ 14 1014.0 30 SE NEW RVR IN 1700 67 N/A 5/ 8 27 SE WRIGHTSVLE 1708 64 68 330/ 16/ 23 1013.8 5 SE WRIGHTSVLE 1608 62 64 330/ 8/ 12 1015.2 225 S CAPE HAT 1650 73 76 320/ 14/ 17 1012.3 7/ 8 5/ 8 41 SE CHARLESTON 1710 65 74 340/ 16/ 19 1014.7 $$

USA.gov is the U.S. government's official web portal to all federal, state and local government web resources and services.